datetime,pool elevation
1977-03-13,6587.8
1977-03-14,6618.0
1977-03-15,6633.0
1977-03-16,6650.0
1977-03-17,6662.3
1977-03-18,6675.0
1977-03-19,6687.2
1977-03-20,6700.0
1977-03-21,6707.4
1977-03-22,6708.4
1977-03-23,6712.8
1977-03-24,6715.5
1977-03-25,6717.5
1977-03-26,6716.8
1977-03-27,6715.7
1977-03-28,6715.2
1977-03-29,6714.6
1977-03-30,6714.6
1977-03-31,6714.68
1977-04-01,6719.5
1977-04-02,6717.7
1977-04-03,6718.3
1977-04-04,6717.7
1977-04-05,6718.0
1977-04-06,6718.8
1977-04-07,6715.9
1977-04-08,6723.9
1977-04-09,6734.6
1977-04-10,6744.9
1977-04-11,6750.7
1977-04-12,6749.4
1977-04-13,6751.2
1977-04-14,6749.9
1977-04-15,6750.3
1977-04-16,6751.0
1977-04-17,6750.8
1977-04-18,6749.4
1977-04-19,6750.0
1977-04-20,6751.5
1977-04-21,6750.0
1977-04-22,6747.6
1977-04-23,6742.6
1977-04-24,6736.3
1977-04-25,6730.3
1977-04-26,6724.0
1977-04-27,6723.3
1977-04-28,6722.0
1977-04-29,6720.0
1977-04-30,6712.6
1977-05-01,6708.3
1977-05-02,6707.2
1977-05-03,6706.8
1977-05-04,6706.8
1977-05-05,6707.0
1977-05-06,6708.3
1977-05-07,6710.7
1977-05-08,6714.8
1977-05-09,6719.6
1977-05-10,6724.2
1977-05-11,6727.8
1977-05-12,6726.1
1977-05-13,6732.1
1977-05-14,6735.9
1977-05-15,6735.3
1977-05-16,6735.9
1977-05-17,6740.9
1977-05-18,6731.4
1977-05-19,6734.9
1977-05-20,6729.4
1977-05-21,6725.5
1977-05-22,6724.9
1977-05-23,6729.2
1977-05-24,6730.9
1977-05-25,6733.1
1977-05-26,6733.6
1977-05-27,6734.1
1977-05-28,6731.5
1977-05-29,6725.9
1977-05-30,6722.9
1977-05-31,6722.9
1977-06-01,6729.2
1977-06-02,6732.7
1977-06-03,6735.6
1977-06-04,6737.1
1977-06-05,6737.5
1977-06-06,6735.0
1977-06-07,6735.5
1977-06-08,6737.7
1977-06-09,6735.6
1977-06-10,6735.5
1977-06-11,6736.0
1977-06-12,6725.9
1977-06-13,6727.2
1977-06-14,6727.4
1977-06-15,6726.4
1977-06-16,6727.1
1977-06-17,6729.5
1977-06-18,6726.4
1977-06-19,6723.5
1977-06-20,6729.7
1977-06-21,6733.7
1977-06-22,6739.8
1977-06-23,6737.7
1977-06-24,6743.4
1977-06-25,6743.1
1977-06-26,6745.7
1977-06-27,6745.0
1977-06-28,6739.4
1977-06-29,6740.0
1977-06-30,6738.2
1977-07-01,6743.0
1977-07-02,6738.5
1977-07-03,6738.7
1977-07-04,6736.0
1977-07-05,6741.0
1977-07-06,6742.0
1977-07-07,6742.4
1977-07-08,6742.9
1977-07-09,6738.2
1977-07-10,6731.6
1977-07-11,6727.8
1977-07-12,6734.5
1977-07-13,6740.0
1977-07-14,6740.5
1977-07-15,6740.5
1977-07-16,6736.6
1977-07-17,6731.3
1977-07-18,6734.2
1977-07-19,6736.6
1977-07-20,6735.3
1977-07-21,6733.6
1977-07-22,6738.5
1977-07-23,6735.3
1977-07-24,6735.5
1977-07-25,6730.0
1977-07-26,6734.5
1977-07-27,6735.15
1977-07-28,6738.0
1977-07-29,6740.0
1977-07-30,6739.5
1977-07-31,6736.4
1977-08-01,6740.5
1977-08-02,6739.8
1977-08-03,6739.5
1977-08-04,6741.0
1977-08-05,6738.1
1977-08-06,6733.9
1977-08-07,6740.4
1977-08-08,6736.3
1977-08-09,6734.9
1977-08-10,6736.0
1977-08-11,6741.2
1977-08-12,6744.8
1977-08-13,6738.7
1977-08-14,6729.2
1977-08-15,6735.1
1977-08-16,6738.4
1977-08-17,6736.3
1977-08-18,6738.6
1977-08-19,6742.9
1977-08-20,6735.5
1977-08-21,6730.4
1977-08-22,6732.9
1977-08-23,6733.7
1977-08-24,6733.9
1977-08-25,6736.8
1977-08-26,6738.4
1977-08-27,6731.0
1977-08-28,6727.0
1977-08-29,6728.7
1977-08-30,6733.0
1977-08-31,6733.7
1977-09-01,6738.9
1977-09-02,6736.9
1977-09-03,6733.3
1977-09-04,6732.0
1977-09-05,6733.4
1977-09-06,6738.6
1977-09-07,6738.1
1977-09-08,6738.2
1977-09-09,6738.0
1977-09-10,6736.0
1977-09-11,6733.0
1977-09-12,6737.0
1977-09-13,6735.4
1977-09-14,6733.3
1977-09-15,6733.7
1977-09-16,6732.0
1977-09-17,6734.3
1977-09-18,6735.2
1977-09-19,6739.01
1977-09-20,6742.0
1977-09-21,6742.2
1977-09-22,6740.7
1977-09-23,6741.02
1977-09-24,6739.7
1977-09-25,6741.0
1977-09-26,6740.1
1977-09-27,6740.0
1977-09-28,6741.0
1977-09-29,6740.3
1977-09-30,6741.5
1977-10-01,6740.0
1977-10-02,6740.0
1977-10-03,6740.0
1977-10-04,6741.0
1977-10-05,6741.1
1977-10-06,6740.0
1977-10-07,6740.0
1977-10-08,6742.0
1977-10-09,6741.12
1977-10-10,6740.0
1977-10-11,6738.5
1977-10-12,6740.0
1977-10-13,6739.0
1977-10-14,6736.0
1977-10-15,6732.6
1977-10-16,6727.4
1977-10-17,6721.4
1977-10-18,6719.6
1977-10-19,6720.6
1977-10-20,6719.1
1977-10-21,6719.5
1977-10-22,6721.8
1977-10-23,6721.23
1977-10-24,6720.3
1977-10-25,6718.2
1977-10-26,6721.4
1977-10-27,6720.6
1977-10-28,6719.2
1977-10-29,6720.2
1977-10-30,6719.6
1977-10-31,6719.5
1977-11-01,6720.2
1977-11-02,6719.1
1977-11-03,6719.5
1977-11-04,6720.0
1977-11-05,6719.3
1977-11-06,6721.2
1977-11-07,6719.2
1977-11-08,6719.7
1977-11-09,6718.2
1977-11-10,6718.0
1977-11-11,6719.3
1977-11-12,6721.0
1977-11-13,6719.1
1977-11-14,6717.6
1977-11-15,6721.6
1977-11-16,6719.2
1977-11-17,6719.2
1977-11-18,6719.4
1977-11-19,6718.7
1977-11-20,6717.8
1977-11-21,6721.8
1977-11-22,6721.5
1977-11-23,6719.8
1977-11-24,6717.0
1977-11-25,6719.1
1977-11-26,6719.4
1977-11-27,6720.9
1977-11-28,6721.3
1977-11-29,6721.0
1977-11-30,6720.4
1977-12-01,6719.5
1977-12-02,6720.85
1977-12-03,6719.2
1977-12-04,6718.4
1977-12-05,6720.2
1977-12-06,6720.6
1977-12-07,6719.8
1977-12-08,6720.5
1977-12-09,6720.02
1977-12-10,6719.5
1977-12-11,6717.1
1977-12-12,6714.7
1977-12-13,6714.5
1977-12-14,6711.7
1977-12-15,6709.9
1977-12-16,6707.3
1977-12-17,6704.6
1977-12-18,6702.0
1977-12-19,6700.5
1977-12-20,6699.0
1977-12-21,6701.7
1977-12-22,6704.16
1977-12-23,6706.3
1977-12-24,6706.11
1977-12-25,6706.2
1977-12-26,6706.66
1977-12-27,6709.2
1977-12-28,6712.57
1977-12-29,6716.43
1977-12-30,6717.34
1977-12-31,6715.91
1978-01-01,6715.44
1978-01-02,6714.71
1978-01-03,6716.2
1978-01-04,6716.6
1978-01-05,6716.9
1978-01-06,6715.2
1978-01-07,6715.25
1978-01-08,6714.11
1978-01-09,6713.06
1978-01-10,6715.6
1978-01-11,6713.2
1978-01-12,6710.1
1978-01-13,6712.9
1978-01-14,6711.9
1978-01-15,6710.09
1978-01-16,6710.88
1978-01-17,6711.2
1978-01-18,6710.85
1978-01-19,6714.3
1978-01-20,6713.9
1978-01-21,6711.6
1978-01-22,6707.4
1978-01-23,6711.7
1978-01-24,6709.4
1978-01-25,6710.0
1978-01-26,6712.5
1978-01-27,6709.1
1978-01-28,6710.0
1978-01-29,6708.2
1978-01-30,6709.1
1978-01-31,6711.1
1978-02-01,6710.5
1978-02-02,6713.17
1978-02-03,6710.5
1978-02-04,6708.1
1978-02-05,6706.34
1978-02-06,6710.34
1978-02-07,6708.5
1978-02-08,6710.58
1978-02-09,6708.94
1978-02-10,6711.08
1978-02-11,6712.34
1978-02-12,6710.14
1978-02-13,6709.95
1978-02-14,6709.29
1978-02-15,6710.09
1978-02-16,6709.13
1978-02-17,6708.84
1978-02-18,6708.36
1978-02-19,6707.98
1978-02-20,6711.5
1978-02-21,6711.6
1978-02-22,6710.29
1978-02-23,6710.06
1978-02-24,6705.95
1978-02-25,6708.57
1978-02-26,6707.4
1978-02-27,6711.01
1978-02-28,6709.1
1978-03-01,6710.72
1978-03-02,6710.83
1978-03-03,6709.85
1978-03-04,6708.53
1978-03-05,6709.0
1978-03-06,6710.81
1978-03-07,6709.87
1978-03-08,6710.66
1978-03-09,6710.94
1978-03-10,6712.38
1978-03-11,6710.71
1978-03-12,6708.55
1978-03-13,6708.46
1978-03-14,6707.32
1978-03-15,6705.27
1978-03-16,6710.4
1978-03-17,6709.54
1978-03-18,6709.2
1978-03-19,6705.67
1978-03-20,6710.3
1978-03-21,6710.27
1978-03-22,6711.3
1978-03-23,6711.44
1978-03-24,6710.29
1978-03-25,6708.41
1978-03-26,6708.5
1978-03-27,6711.36
1978-03-28,6710.78
1978-03-29,6709.12
1978-03-30,6708.17
1978-03-31,6709.83
1978-04-01,6710.13
1978-04-02,6708.74
1978-04-03,6710.07
1978-04-04,6708.78
1978-04-05,6712.13
1978-04-06,6712.62
1978-04-07,6712.47
1978-04-08,6711.33
1978-04-09,6712.9
1978-04-10,6711.97
1978-04-11,6712.52
1978-04-12,6713.35
1978-04-13,6717.8
1978-04-14,6722.12
1978-04-15,6714.4
1978-04-16,6713.36
1978-04-17,6715.48
1978-04-18,6717.16
1978-04-19,6720.28
1978-04-20,6719.4
1978-04-21,6714.74
1978-04-22,6708.16
1978-04-23,6703.18
1978-04-24,6698.86
1978-04-25,6700.02
1978-04-26,6701.31
1978-04-27,6699.74
1978-04-28,6699.6
1978-04-29,6700.61
1978-04-30,6699.3
1978-05-01,6701.2
1978-05-02,6699.93
1978-05-03,6698.25
1978-05-04,6697.91
1978-05-05,6698.35
1978-05-06,6698.0
1978-05-07,6699.13
1978-05-08,6697.3
1978-05-09,6700.41
1978-05-10,6700.8
1978-05-11,6699.0
1978-05-12,6701.18
1978-05-13,6702.5
1978-05-14,6701.11
1978-05-15,6700.97
1978-05-16,6701.13
1978-05-17,6701.8
1978-05-18,6700.26
1978-05-19,6699.75
1978-05-20,6699.61
1978-05-21,6701.41
1978-05-22,6700.27
1978-05-23,6700.6
1978-05-24,6700.47
1978-05-25,6700.57
1978-05-26,6701.08
1978-05-27,6699.12
1978-05-28,6701.0
1978-05-29,6700.17
1978-05-30,6701.42
1978-05-31,6699.35
1978-06-01,6700.99
1978-06-02,6701.06
1978-06-03,6701.02
1978-06-04,6701.56
1978-06-05,6700.47
1978-06-06,6701.47
1978-06-07,6717.54
1978-06-08,6722.92
1978-06-09,6725.04
1978-06-10,6729.98
1978-06-11,6736.0
1978-06-12,6740.9
1978-06-13,6742.11
1978-06-14,6742.96
1978-06-15,6742.43
1978-06-16,6740.34
1978-06-17,6739.04
1978-06-18,6739.4
1978-06-19,6737.86
1978-06-20,6740.45
1978-06-21,6738.12
1978-06-22,6740.48
1978-06-23,6743.81
1978-06-24,6744.04
1978-06-25,6742.81
1978-06-26,6747.04
1978-06-27,6749.08
1978-06-28,6749.56
1978-06-29,6752.84
1978-06-30,6752.53
1978-07-01,6752.12
1978-07-02,6751.45
1978-07-03,6751.44
1978-07-04,6751.86
1978-07-05,6752.09
1978-07-06,6752.15
1978-07-07,6752.06
1978-07-08,6752.1
1978-07-09,6751.5
1978-07-10,6751.48
1978-07-11,6751.41
1978-07-12,6751.02
1978-07-13,6751.45
1978-07-14,6752.59
1978-07-15,6751.86
1978-07-16,6750.11
1978-07-17,6752.14
1978-07-18,6749.64
1978-07-19,6749.94
1978-07-20,6750.13
1978-07-21,6751.17
1978-07-22,6751.57
1978-07-23,6751.03
1978-07-24,6750.5
1978-07-25,6751.57
1978-07-26,6751.87
1978-07-27,6752.06
1978-07-28,6750.87
1978-07-29,6750.55
1978-07-30,6748.98
1978-07-31,6750.14
1978-08-01,6750.47
1978-08-02,6750.4
1978-08-03,6751.04
1978-08-04,6750.82
1978-08-05,6751.46
1978-08-06,6751.45
1978-08-07,6751.42
1978-08-08,6751.46
1978-08-09,6752.0
1978-08-10,6750.84
1978-08-11,6751.45
1978-08-12,6751.17
1978-08-13,6751.12
1978-08-14,6751.07
1978-08-15,6751.47
1978-08-16,6751.56
1978-08-17,6751.57
1978-08-18,6750.13
1978-08-19,6749.15
1978-08-20,6749.57
1978-08-21,6750.53
1978-08-22,6750.01
1978-08-23,6751.82
1978-08-24,6751.55
1978-08-25,6751.05
1978-08-26,6751.08
1978-08-27,6751.5
1978-08-28,6751.52
1978-08-29,6752.12
1978-08-30,6749.49
1978-08-31,6750.94
1978-09-01,6750.54
1978-09-02,6751.52
1978-09-03,6750.48
1978-09-04,6749.58
1978-09-05,6750.58
1978-09-06,6750.55
1978-09-07,6750.46
1978-09-08,6749.59
1978-09-09,6749.14
1978-09-10,6750.25
1978-09-11,6750.0
1978-09-12,6750.45
1978-09-13,6751.0
1978-09-14,6750.98
1978-09-15,6751.02
1978-09-16,6749.12
1978-09-17,6750.14
1978-09-18,6748.42
1978-09-19,6750.45
1978-09-20,6751.09
1978-09-21,6749.54
1978-09-22,6750.54
1978-09-23,6749.48
1978-09-24,6750.49
1978-09-25,6750.08
1978-09-26,6749.56
1978-09-27,6752.96
1978-09-28,6753.68
1978-09-29,6753.0
1978-09-30,6752.56
1978-10-01,6752.44
1978-10-02,6752.58
1978-10-03,6752.91
1978-10-04,6753.16
1978-10-05,6753.58
1978-10-06,6753.41
1978-10-07,6752.81
1978-10-08,6752.56
1978-10-09,6753.08
1978-10-10,6752.52
1978-10-11,6753.81
1978-10-12,6753.52
1978-10-13,6752.48
1978-10-14,6750.41
1978-10-15,6753.0
1978-10-16,6753.06
1978-10-17,6753.5
1978-10-18,6752.9
1978-10-19,6752.06
1978-10-20,6752.82
1978-10-21,6753.02
1978-10-22,6752.52
1978-10-23,6752.11
1978-10-24,6752.11
1978-10-25,6752.44
1978-10-26,6750.18
1978-10-27,6751.43
1978-10-28,6751.66
1978-10-29,6749.94
1978-10-30,6752.17
1978-10-31,6750.41
1978-11-01,6750.63
1978-11-02,6750.06
1978-11-03,6750.61
1978-11-04,6751.79
1978-11-05,6751.28
1978-11-06,6752.82
1978-11-07,6752.53
1978-11-08,6750.71
1978-11-09,6751.29
1978-11-10,6749.78
1978-11-11,6749.23
1978-11-12,6744.32
1978-11-13,6743.13
1978-11-14,6747.05
1978-11-15,6749.4
1978-11-16,6749.18
1978-11-17,6750.16
1978-11-18,6750.1
1978-11-19,6750.16
1978-11-20,6751.83
1978-11-21,6752.35
1978-11-22,6751.68
1978-11-23,6750.49
1978-11-24,6748.85
1978-11-25,6750.95
1978-11-26,6749.18
1978-11-27,6748.52
1978-11-28,6750.26
1978-11-29,6751.13
1978-11-30,6750.41
1978-12-01,6749.91
1978-12-02,6753.46
1978-12-03,6751.89
1978-12-04,6749.88
1978-12-05,6751.09
1978-12-06,6750.63
1978-12-07,6750.02
1978-12-08,6750.83
1978-12-09,6749.85
1978-12-10,6748.9
1978-12-11,6748.2
1978-12-12,6750.35
1978-12-13,6751.88
1978-12-14,6750.24
1978-12-15,6750.49
1978-12-16,6749.75
1978-12-17,6748.89
1978-12-18,6749.75
1978-12-19,6749.57
1978-12-20,6749.25
1978-12-21,6748.14
1978-12-22,6750.58
1978-12-23,6750.72
1978-12-24,6749.41
1978-12-25,6750.66
1978-12-26,6751.46
1978-12-27,6750.2
1978-12-28,6749.86
1978-12-29,6751.45
1978-12-30,6751.25
1978-12-31,6749.88
1979-01-01,6751.01
1979-01-02,6750.56
1979-01-03,6751.77
1979-01-04,6748.25
1979-01-05,6752.11
1979-01-06,6748.18
1979-01-07,6752.02
1979-01-08,6747.85
1979-01-09,6751.28
1979-01-10,6752.0
1979-01-11,6752.03
1979-01-12,6751.19
1979-01-13,6751.89
1979-01-14,6750.26
1979-01-15,6748.2
1979-01-16,6751.59
1979-01-17,6750.01
1979-01-18,6750.95
1979-01-19,6749.08
1979-01-20,6743.42
1979-01-21,6741.74
1979-01-22,6744.16
1979-01-23,6746.58
1979-01-24,6749.35
1979-01-25,6750.23
1979-01-26,6748.81
1979-01-27,6749.77
1979-01-28,6749.8
1979-01-29,6750.7
1979-01-30,6750.99
1979-01-31,6751.44
1979-02-01,6750.92
1979-02-02,6751.24
1979-02-03,6750.86
1979-02-04,6750.86
1979-02-05,6749.76
1979-02-06,6749.73
1979-02-07,6749.4
1979-02-08,6749.78
1979-02-09,6753.09
1979-02-10,6755.0
1979-02-11,6755.0
1979-02-12,6754.41
1979-02-13,6753.5
1979-02-14,6753.07
1979-02-15,6753.25
1979-02-16,6752.83
1979-02-17,6752.36
1979-02-18,6751.79
1979-02-19,6750.96
1979-02-20,6750.2
1979-02-21,6749.43
1979-02-22,6748.7
1979-02-23,6751.5
1979-02-24,6752.39
1979-02-25,6750.34
1979-02-26,6753.44
1979-02-27,6753.08
1979-02-28,6752.29
1979-03-01,6752.61
1979-03-02,6753.18
1979-03-03,6751.09
1979-03-04,6752.03
1979-03-05,6752.92
1979-03-06,6750.8
1979-03-07,6751.08
1979-03-08,6752.08
1979-03-09,6750.99
1979-03-10,6752.13
1979-03-11,6751.24
1979-03-12,6750.38
1979-03-13,6753.23
1979-03-14,6752.4
1979-03-15,6753.55
1979-03-16,6751.9
1979-03-17,6751.72
1979-03-18,6752.26
1979-03-19,6753.7
1979-03-20,6755.0
1979-03-21,6754.65
1979-03-22,6754.13
1979-03-23,6754.12
1979-03-24,6753.3
1979-03-25,6753.15
1979-03-26,6753.51
1979-03-27,6753.99
1979-03-28,6753.63
1979-03-29,6754.81
1979-03-30,6754.75
1979-03-31,6753.68
1979-04-01,6753.85
1979-04-02,6753.97
1979-04-03,6754.59
1979-04-04,6752.77
1979-04-05,6751.85
1979-04-06,6750.38
1979-04-07,6750.04
1979-04-08,6751.94
1979-04-09,6753.92
1979-04-10,6754.37
1979-04-11,6753.85
1979-04-12,6752.66
1979-04-13,6753.11
1979-04-14,6752.71
1979-04-15,6750.62
1979-04-16,6752.27
1979-04-17,6751.88
1979-04-18,6753.53
1979-04-19,6752.2
1979-04-20,6752.62
1979-04-21,6750.81
1979-04-22,6752.84
1979-04-23,6754.45
1979-04-24,6752.71
1979-04-25,6750.12
1979-04-26,6752.58
1979-04-27,6754.67
1979-04-28,6753.02
1979-04-29,6753.23
1979-04-30,6751.36
1979-05-01,6752.08
1979-05-02,6753.32
1979-05-03,6750.63
1979-05-04,6754.53
1979-05-05,6752.52
1979-05-06,6751.45
1979-05-07,6754.85
1979-05-08,6754.25
1979-05-09,6754.1
1979-05-10,6749.64
1979-05-11,6749.61
1979-05-12,6751.58
1979-05-13,6754.84
1979-05-14,6753.58
1979-05-15,6753.48
1979-05-16,6754.22
1979-05-17,6752.22
1979-05-18,6751.54
1979-05-19,6751.2
1979-05-20,6749.62
1979-05-21,6751.75
1979-05-22,6752.59
1979-05-23,6752.75
1979-05-24,6753.49
1979-05-25,6752.93
1979-05-26,6752.54
1979-05-27,6752.12
1979-05-28,6752.86
1979-05-29,6753.02
1979-05-30,6753.26
1979-05-31,6752.36
1979-06-01,6753.51
1979-06-02,6752.4
1979-06-03,6751.67
1979-06-04,6750.78
1979-06-05,6752.93
1979-06-06,6753.15
1979-06-07,6753.02
1979-06-08,6751.67
1979-06-09,6750.51
1979-06-10,6750.17
1979-06-11,6749.18
1979-06-12,6750.49
1979-06-13,6753.2
1979-06-14,6754.31
1979-06-15,6752.64
1979-06-16,6752.96
1979-06-17,6751.24
1979-06-18,6751.92
1979-06-19,6750.67
1979-06-20,6753.36
1979-06-21,6752.32
1979-06-22,6751.51
1979-06-23,6753.14
1979-06-24,6751.61
1979-06-25,6753.52
1979-06-26,6752.24
1979-06-27,6753.52
1979-06-28,6754.02
1979-06-29,6752.21
1979-06-30,6752.81
1979-07-01,6749.25
1979-07-02,6753.53
1979-07-03,6753.96
1979-07-04,6752.88
1979-07-05,6753.29
1979-07-06,6752.78
1979-07-07,6753.25
1979-07-08,6751.23
1979-07-09,6752.6
1979-07-10,6753.02
1979-07-11,6754.19
1979-07-12,6754.72
1979-07-13,6754.38
1979-07-14,6754.12
1979-07-15,6754.08
1979-07-16,6754.13
1979-07-17,6752.65
1979-07-18,6754.09
1979-07-19,6754.32
1979-07-20,6754.8
1979-07-21,6755.09
1979-07-22,6753.35
1979-07-23,6754.81
1979-07-24,6755.21
1979-07-25,6754.51
1979-07-26,6754.16
1979-07-27,6755.23
1979-07-28,6753.49
1979-07-29,6754.16
1979-07-30,6753.13
1979-07-31,6755.28
1979-08-01,6752.84
1979-08-02,6753.75
1979-08-03,6753.95
1979-08-04,6753.5
1979-08-05,6753.96
1979-08-06,6754.82
1979-08-07,6753.53
1979-08-08,6753.41
1979-08-09,6753.33
1979-08-10,6753.13
1979-08-11,6753.38
1979-08-12,6753.75
1979-08-13,6752.47
1979-08-14,6750.6
1979-08-15,6753.5
1979-08-16,6754.0
1979-08-17,6753.54
1979-08-18,6754.8
1979-08-19,6751.49
1979-08-20,6753.61
1979-08-21,6753.23
1979-08-22,6749.14
1979-08-23,6753.1
1979-08-24,6753.07
1979-08-25,6753.44
1979-08-26,6754.56
1979-08-27,6754.47
1979-08-28,6754.23
1979-08-29,6754.1
1979-08-30,6754.72
1979-08-31,6753.61
1979-09-01,6753.83
1979-09-02,6752.22
1979-09-03,6754.06
1979-09-04,6753.0
1979-09-05,6752.76
1979-09-06,6751.94
1979-09-07,6752.75
1979-09-08,6755.06
1979-09-09,6754.18
1979-09-10,6753.8
1979-09-11,6752.52
1979-09-12,6751.28
1979-09-13,6752.71
1979-09-14,6753.61
1979-09-15,6753.17
1979-09-16,6752.11
1979-09-17,6752.57
1979-09-18,6751.49
1979-09-19,6754.02
1979-09-20,6754.18
1979-09-21,6751.88
1979-09-22,6747.36
1979-09-23,6750.61
1979-09-24,6754.21
1979-09-25,6754.72
1979-09-26,6753.44
1979-09-27,6753.84
1979-09-28,6754.39
1979-09-29,6752.95
1979-09-30,6752.34
1979-10-01,6753.55
1979-10-02,6754.0
1979-10-03,6753.52
1979-10-04,6750.04
1979-10-05,6747.38
1979-10-06,6751.28
1979-10-07,6752.38
1979-10-08,6754.29
1979-10-09,6752.91
1979-10-10,6754.12
1979-10-11,6751.73
1979-10-12,6753.3
1979-10-13,6752.76
1979-10-14,6751.4
1979-10-15,6749.7
1979-10-16,6754.21
1979-10-17,6753.07
1979-10-18,6751.01
1979-10-19,6750.9
1979-10-20,6751.28
1979-10-21,6749.12
1979-10-22,6751.14
1979-10-23,6753.16
1979-10-24,6751.36
1979-10-25,6751.92
1979-10-26,6749.4
1979-10-27,6747.14
1979-10-28,6748.54
1979-10-29,6753.87
1979-10-30,6753.82
1979-10-31,6751.63
1979-11-01,6754.05
1979-11-02,6750.34
1979-11-03,6750.65
1979-11-04,6749.88
1979-11-05,6753.35
1979-11-06,6754.12
1979-11-07,6752.87
1979-11-08,6751.12
1979-11-09,6750.7
1979-11-10,6743.81
1979-11-11,6744.0
1979-11-12,6743.56
1979-11-13,6743.23
1979-11-14,6745.53
1979-11-15,6745.82
1979-11-16,6744.9
1979-11-17,6744.9
1979-11-18,6743.68
1979-11-19,6746.23
1979-11-20,6745.95
1979-11-21,6746.08
1979-11-22,6744.14
1979-11-23,6745.65
1979-11-24,6745.48
1979-11-25,6746.5
1979-11-26,6751.44
1979-11-27,6753.85
1979-11-28,6752.83
1979-11-29,6754.52
1979-11-30,6753.65
1979-12-01,6754.2
1979-12-02,6748.43
1979-12-03,6748.83
1979-12-04,6749.11
1979-12-05,6751.64
1979-12-06,6753.08
1979-12-07,6754.26
1979-12-08,6753.61
1979-12-09,6752.75
1979-12-10,6753.27
1979-12-11,6753.51
1979-12-12,6752.93
1979-12-13,6752.76
1979-12-14,6750.24
1979-12-15,6753.96
1979-12-16,6749.97
1979-12-17,6752.33
1979-12-18,6749.77
1979-12-19,6752.5
1979-12-20,6751.96
1979-12-21,6752.99
1979-12-22,6754.92
1979-12-23,6754.0
1979-12-24,6752.12
1979-12-25,6752.54
1979-12-26,6749.3
1979-12-27,6753.36
1979-12-28,6751.41
1979-12-29,6750.97
1979-12-30,6749.35
1979-12-31,6753.9
1980-01-01,6749.27
1980-01-02,6752.95
1980-01-03,6751.71
1980-01-04,6753.42
1980-01-05,6751.44
1980-01-06,6753.11
1980-01-07,6753.93
1980-01-08,6753.85
1980-01-09,6750.11
1980-01-10,6753.08
1980-01-11,6753.08
1980-01-12,6752.04
1980-01-13,6753.71
1980-01-14,6754.19
1980-01-15,6753.84
1980-01-16,6750.76
1980-01-17,6749.85
1980-01-18,6753.23
1980-01-19,6751.17
1980-01-20,6753.54
1980-01-21,6752.14
1980-01-22,6753.9
1980-01-23,6752.29
1980-01-24,6751.19
1980-01-25,6754.87
1980-01-26,6750.15
1980-01-27,6750.43
1980-01-28,6753.7
1980-01-29,6754.76
1980-01-30,6753.59
1980-01-31,6753.96
1980-02-01,6753.08
1980-02-02,6751.41
1980-02-03,6752.59
1980-02-04,6751.59
1980-02-05,6751.99
1980-02-06,6753.19
1980-02-07,6753.35
1980-02-08,6753.61
1980-02-09,6751.92
1980-02-10,6753.16
1980-02-11,6752.89
1980-02-12,6752.61
1980-02-13,6752.4
1980-02-14,6754.05
1980-02-15,6752.95
1980-02-16,6755.9
1980-02-17,6752.62
1980-02-18,6754.68
1980-02-19,6753.66
1980-02-20,6752.83
1980-02-21,6753.91
1980-02-22,6752.21
1980-02-23,6754.47
1980-02-24,6750.84
1980-02-25,6751.55
1980-02-26,6751.2
1980-02-27,6750.71
1980-02-28,6753.3
1980-02-29,6751.45
1980-03-01,6752.2
1980-03-02,6749.76
1980-03-03,6748.36
1980-03-04,6748.84
1980-03-05,6751.58
1980-03-06,6751.9
1980-03-07,6751.39
1980-03-08,6751.65
1980-03-09,6748.66
1980-03-10,6752.19
1980-03-11,6750.4
1980-03-12,6752.06
1980-03-13,6752.01
1980-03-14,6753.08
1980-03-15,6754.49
1980-03-16,6751.76
1980-03-17,6754.42
1980-03-18,6754.05
1980-03-19,6754.63
1980-03-20,6754.3
1980-03-21,6753.15
1980-03-22,6753.96
1980-03-23,6751.73
1980-03-24,6753.19
1980-03-25,6753.88
1980-03-26,6752.82
1980-03-27,6752.82
1980-03-28,6750.71
1980-03-29,6748.99
1980-03-30,6753.91
1980-03-31,6751.97
1980-04-01,6751.98
1980-04-02,6751.86
1980-04-03,6752.18
1980-04-04,6751.66
1980-04-05,6749.6
1980-04-06,6747.62
1980-04-07,6749.74
1980-04-08,6751.49
1980-04-09,6751.04
1980-04-10,6753.21
1980-04-11,6754.97
1980-04-12,6753.82
1980-04-13,6752.11
1980-04-14,6751.23
1980-04-15,6753.25
1980-04-16,6754.19
1980-04-17,6753.11
1980-04-18,6750.73
1980-04-19,6752.31
1980-04-20,6753.25
1980-04-21,6754.61
1980-04-22,6753.42
1980-04-23,6753.18
1980-04-24,6753.06
1980-04-25,6751.98
1980-04-26,6752.0
1980-04-27,6753.76
1980-04-28,6754.44
1980-04-29,6753.86
1980-04-30,6750.67
1980-05-01,6751.81
1980-05-02,6748.77
1980-05-03,6748.59
1980-05-04,6747.81
1980-05-05,6746.55
1980-05-06,6746.58
1980-05-07,6746.76
1980-05-08,6746.6
1980-05-09,6746.52
1980-05-10,6748.94
1980-05-11,6750.8
1980-05-12,6750.63
1980-05-13,6750.75
1980-05-14,6753.9
1980-05-15,6751.95
1980-05-16,6754.78
1980-05-17,6753.74
1980-05-18,6754.45
1980-05-19,6753.94
1980-05-20,6752.32
1980-05-21,6753.96
1980-05-22,6754.34
1980-05-23,6753.7
1980-05-24,6754.66
1980-05-25,6752.61
1980-05-26,6754.08
1980-05-27,6752.72
1980-05-28,6752.03
1980-05-29,6749.38
1980-05-30,6751.51
1980-05-31,6753.78
1980-06-01,6749.59
1980-06-02,6752.13
1980-06-03,6752.59
1980-06-04,6753.0
1980-06-05,6751.34
1980-06-06,6750.42
1980-06-07,6751.33
1980-06-08,6752.67
1980-06-09,6752.76
1980-06-10,6753.58
1980-06-11,6752.09
1980-06-12,6750.42
1980-06-13,6750.29
1980-06-14,6748.58
1980-06-15,6752.97
1980-06-16,6750.85
1980-06-17,6751.4
1980-06-18,6747.82
1980-06-19,6750.71
1980-06-20,6753.46
1980-06-21,6754.18
1980-06-22,6752.61
1980-06-23,6750.52
1980-06-24,6751.89
1980-06-25,6748.66
1980-06-26,6751.83
1980-06-27,6752.07
1980-06-28,6754.56
1980-06-29,6752.2
1980-06-30,6749.55
1980-07-01,6750.9
1980-07-02,6748.7
1980-07-03,6750.16
1980-07-04,6749.86
1980-07-05,6752.55
1980-07-06,6753.39
1980-07-07,6753.06
1980-07-08,6753.06
1980-07-09,6753.74
1980-07-10,6753.2
1980-07-11,6751.31
1980-07-12,6749.63
1980-07-13,6753.21
1980-07-14,6750.83
1980-07-15,6752.11
1980-07-16,6753.36
1980-07-17,6753.26
1980-07-18,6754.26
1980-07-19,6750.17
1980-07-20,6750.48
1980-07-21,6751.11
1980-07-22,6754.72
1980-07-23,6754.41
1980-07-24,6753.15
1980-07-25,6753.29
1980-07-26,6752.1
1980-07-27,6752.07
1980-07-28,6752.35
1980-07-29,6752.64
1980-07-30,6754.17
1980-07-31,6753.22
1980-08-01,6753.24
1980-08-02,6752.75
1980-08-03,6755.07
1980-08-04,6754.72
1980-08-05,6748.07
1980-08-06,6744.47
1980-08-07,6743.74
1980-08-08,6745.47
1980-08-09,6748.05
1980-08-10,6750.4
1980-08-11,6749.88
1980-08-12,6751.61
1980-08-13,6751.65
1980-08-14,6753.82
1980-08-15,6751.03
1980-08-16,6751.92
1980-08-17,6749.64
1980-08-18,6753.38
1980-08-19,6749.38
1980-08-20,6752.27
1980-08-21,6754.11
1980-08-22,6752.2
1980-08-23,6754.19
1980-08-24,6751.09
1980-08-25,6745.59
1980-08-26,6742.1
1980-08-27,6746.93
1980-08-28,6749.93
1980-08-29,6755.16
1980-08-30,6754.19
1980-08-31,6755.15
1980-09-01,6752.88
1980-09-02,6753.78
1980-09-03,6751.71
1980-09-04,6753.58
1980-09-05,6753.56
1980-09-06,6754.44
1980-09-07,6754.35
1980-09-08,6754.49
1980-09-09,6754.74
1980-09-10,6750.84
1980-09-11,6753.16
1980-09-12,6755.04
1980-09-13,6755.08
1980-09-14,6750.92
1980-09-15,6744.74
1980-09-16,6742.33